TimeEDT,TemperatureF,Dew PointF,Humidity,Sea Level PressureIn,VisibilityMPH,Wind Direction,Wind SpeedMPH,Gust SpeedMPH,PrecipitationIn,Events,Conditions,WindDirDegrees,DateUTC
12:55 AM,34.0,27.0,75,30.12,10.0,NNE,8.1,-,N/A,,Clear,20,2013-04-10 04:55:00
1:55 AM,33.1,26.1,75,30.13,10.0,NNE,11.5,17.3,N/A,,Clear,30,2013-04-10 05:55:00
2:55 AM,32.0,25.0,75,30.13,10.0,NE,8.1,-,N/A,,Clear,40,2013-04-10 06:55:00
3:55 AM,32.0,24.1,73,30.13,10.0,NE,4.6,-,N/A,,Clear,40,2013-04-10 07:55:00
4:55 AM,32.0,24.1,73,30.16,10.0,NNW,3.5,-,N/A,,Clear,340,2013-04-10 08:55:00
5:48 AM,32.0,24.1,73,30.15,10.0,Calm,Calm,-,N/A,,Mostly Cloudy,0,2013-04-10 09:48:00
5:55 AM,32.0,24.1,73,30.17,10.0,Calm,Calm,-,N/A,,Mostly Cloudy,0,2013-04-10 09:55:00
6:55 AM,30.9,24.1,76,30.17,10.0,ENE,4.6,-,N/A,,Mostly Cloudy,60,2013-04-10 10:55:00
7:55 AM,30.9,24.1,76,30.14,10.0,NE,6.9,-,N/A,,Overcast,50,2013-04-10 11:55:00
8:15 AM,30.9,21.9,69,30.14,10.0,ENE,6.9,-,N/A,,Scattered Clouds,60,2013-04-10 12:15:00
8:55 AM,32.0,21.9,66,30.17,10.0,ENE,5.8,-,N/A,,Clear,60,2013-04-10 12:55:00
9:55 AM,33.1,18.0,54,30.15,10.0,ENE,5.8,-,N/A,,Clear,70,2013-04-10 13:55:00
10:55 AM,35.1,16.0,46,30.16,10.0,Variable,4.6,-,N/A,,Clear,0,2013-04-10 14:55:00
11:55 AM,37.0,15.1,41,30.15,10.0,East,5.8,-,N/A,,Clear,80,2013-04-10 15:55:00
12:55 PM,39.9,16.0,38,30.16,10.0,Calm,Calm,-,N/A,,Scattered Clouds,0,2013-04-10 16:55:00
1:55 PM,41.0,16.0,36,30.13,10.0,Calm,Calm,-,N/A,,Clear,0,2013-04-10 17:55:00
2:55 PM,39.0,21.0,49,30.11,10.0,WSW,8.1,-,N/A,,Clear,240,2013-04-10 18:55:00
3:55 PM,41.0,19.9,43,30.15,10.0,WNW,10.4,-,N/A,,Clear,300,2013-04-10 19:55:00
4:55 PM,37.9,19.0,47,30.14,10.0,WNW,13.8,-,N/A,,Clear,290,2013-04-10 20:55:00
5:55 PM,39.0,21.0,49,30.08,10.0,NW,12.7,-,N/A,,Clear,310,2013-04-10 21:55:00
6:55 PM,37.0,24.1,59,30.09,10.0,NW,13.8,-,N/A,,Clear,310,2013-04-10 22:55:00
7:55 PM,35.1,24.1,64,30.10,10.0,WNW,10.4,-,N/A,,Clear,300,2013-04-10 23:55:00
8:55 PM,33.1,24.1,70,30.11,10.0,NW,9.2,-,N/A,,Clear,310,2013-04-11 00:55:00
9:55 PM,33.1,24.1,70,30.11,10.0,North,3.5,-,N/A,,Clear,360,2013-04-11 01:55:00
10:55 PM,36.0,18.0,48,30.12,10.0,NE,4.6,-,N/A,,Clear,40,2013-04-11 02:55:00
11:55 PM,36.0,16.0,44,30.17,10.0,NE,11.5,18.4,N/A,,Clear,50,2013-04-11 03:55:00